Wind_Speed
66 66 65 65 64 64 65 64 63 62 62 62 61 60 59 59 59 58 57 56 55 55 55 54 54 53 53 52 51 51 50 50 51 51 51 51 50 49 48 46 44 43 41 40 40 39 38 38 38 38 39 40 40 41 41 41 40 40 40 40 41 43 45 47 48 49 49 50 51 52 52 51 50 50 50 50 51 52 54 57 60 63 64 63 61 58
67 66 66 65 64 64 64 64 62 60 60 60 60 59 58 57 57 56 56 55 54 54 53 53 53 52 52 52 51 51 51 51 50 50 50 49 48 47 45 44 42 41 40 39 39 38 37 37 37 37 37 37 37 37 37 37 36 36 36 37 37 38 40 41 43 43 44 45 46 47 48 48 49 50 51 52 53 55 57 59 62 63 64 62 60 56
66 66 66 65 64 63 63 62 61 59 57 57 57 57 56 55 55 55 55 54 54 53 52 52 52 52 52 52 52 51 51 50 50 49 48 47 46 45 44 43 41 41 40 39 38 37 37 36 36 35 35 35 34 34 34 33 33 34 34 34 34 34 35 37 38 39 41 43 45 47 48 50 51 53 54 55 56 58 59 61 62 62 62 60 58 54
64 63 64 64 62 61 60 59 58 57 56 55 55 55 54 54 54 55 55 54 54 53 52 52 52 53 53 53 52 52 51 50 49 48 47 46 45 44 43 42 41 40 39 38 38 37 36 36 35 34 34 33 32 32 32 32 33 33 33 32 32 32 34 36 38 40 42 44 47 50 52 54 55 56 57 57 58 59 60 60 61 60 58 57 55 53
62 61 61 60 60 58 57 56 54 54 54 54 53 54 54 54 55 55 55 54 54 54 54 53 53 54 54 54 53 51 50 49 48 47 46 45 44 43 42 41 40 39 38 38 37 36 36 35 35 34 33 32 32 32 32 33 33 34 34 33 33 34 36 38 40 43 45 48 50 52 54 55 56 56 56 57 58 58 58 58 58 56 55 53 52 51
60 58 57 56 55 55 54 53 53 52 53 53 54 54 54 55 55 55 55 55 55 55 55 55 54 54 54 53 52 51 49 48 47 46 45 43 42 41 40 39 38 37 37 36 35 35 35 34 33 33 32 32 32 32 33 33 34 35 36 36 36 37 40 42 44 46 49 51 52 53 54 54 54 54 53 54 54 55 55 54 53 52 51 50 50 49
58 56 54 52 52 52 51 51 51 52 52 53 54 54 55 55 55 56 56 56 56 56 56 55 55 54 53 52 51 50 49 47 46 44 43 41 40 39 38 37 36 35 35 34 33 33 33 32 32 31 31 31 31 32 33 34 35 36 38 39 40 41 42 44 46 48 49 51 51 52 52 51 51 50 50 50 50 50 50 49 49 48 48 47 47 47
56 55 53 51 50 50 51 51 51 51 51 52 53 54 56 56 57 57 56 56 56 56 56 56 55 53 51 50 50 49 47 46 44 42 41 40 38 37 36 36 35 34 33 32 32 31 31 31 30 30 30 31 32 34 34 35 36 37 39 40 41 42 43 44 46 47 48 48 49 49 49 48 48 47 47 47 46 46 45 45 44 44 44 44 44 45
52 52 52 50 49 49 51 52 51 50 50 51 53 55 57 58 58 57 56 56 56 56 56 56 55 53 50 49 47 46 45 43 42 41 40 39 39 38 37 36 35 34 33 32 31 31 30 30 30 30 31 32 34 35 35 36 37 38 39 39 40 41 41 42 43 44 45 45 45 45 45 45 45 45 44 44 43 42 41 41 40 40 40 40 41 42
49 49 49 49 49 49 50 51 51 51 51 52 54 55 57 58 59 59 58 57 55 55 55 56 55 53 50 47 45 44 43 42 41 40 40 40 39 39 38 37 36 35 33 33 32 31 31 30 31 31 32 33 34 34 35 36 37 38 38 39 39 39 40 40 41 42 42 42 43 43 43 43 43 42 42 41 40 38 37 36 35 35 37 37 38 38
48 48 48 48 49 49 49 50 51 52 53 54 55 55 56 57 58 60 62 60 57 55 54 53 52 50 48 45 43 42 42 42 42 42 41 41 40 40 39 38 37 36 35 34 33 33 32 33 33 33 34 34 35 35 36 37 37 38 38 38 38 38 38 39 39 40 40 41 41 42 42 42 41 41 39 38 36 34 32 32 32 33 35 35 35 35
46 47 47 48 49 50 51 52 54 55 55 56 57 58 58 58 59 61 63 62 59 56 53 50 48 46 45 45 44 44 44 44 44 43 43 42 42 41 40 40 38 37 36 35 35 34 34 34 35 35 35 36 36 37 37 38 38 38 38 38 38 38 38 38 38 39 39 40 40 41 41 41 40 39 37 35 32 30 29 30 32 33 34 35 35 34
46 47 47 49 50 51 53 55 56 56 56 57 59 60 61 61 61 61 61 60 57 54 51 48 46 45 44 44 45 45 45 45 44 44 43 42 42 41 41 40 39 38 37 36 36 35 35 35 35 36 36 36 37 37 37 38 38 38 38 38 38 38 38 38 38 38 39 39 40 40 40 40 39 38 35 32 29 28 29 30 31 33 34 34 34 34
46 47 48 50 51 53 54 55 57 57 58 58 60 61 62 61 60 59 58 55 52 49 47 47 46 45 45 44 44 44 44 44 43 42 41 41 40 40 40 40 39 37 36 36 35 34 34 34 34 35 35 35 36 36 37 37 37 37 37 37 37 37 37 37 37 38 38 39 40 40 40 40 39 36 34 30 29 29 30 32 33 33 34 34 34 35
45 47 49 51 53 54 55 56 57 58 59 60 60 61 61 59 57 54 52 50 48 46 46 46 47 46 45 44 43 43 42 42 41 40 40 39 38 38 38 38 37 36 35 34 33 32 32 32 32 33 33 33 34 34 34 35 35 35 35 35 35 35 36 36 36 37 38 39 40 40 40 40 39 36 33 31 30 31 33 34 35 35 35 35 35 36
46 48 50 52 54 55 56 57 58 60 60 60 59 58 57 55 51 49 47 47 46 46 46 47 47 46 44 41 40 40 40 41 40 40 39 37 36 35 36 37 36 35 34 33 32 32 31 31 31 31 31 31 31 32 32 32 33 33 33 33 33 33 33 34 35 36 37 39 40 41 41 40 39 37 35 33 33 34 36 37 37 37 37 37 38 38
48 49 51 53 55 57 57 58 59 60 59 58 56 53 51 48 47 46 46 46 46 46 46 46 47 46 44 40 37 37 38 40 40 40 39 37 36 35 35 36 36 35 34 33 32 32 31 31 30 30 30 30 29 29 30 30 30 30 31 31 31 31 31 33 35 36 38 40 41 41 42 41 40 38 36 36 36 37 37 38 38 39 39 40 41 41
49 51 53 55 57 58 59 59 58 57 55 53 50 47 45 44 44 45 46 47 47 46 45 45 44 44 43 41 38 36 37 40 41 41 40 39 37 35 35 35 36 36 35 34 33 32 31 31 30 29 29 28 28 27 27 27 28 28 28 29 29 30 31 33 34 36 38 39 41 42 42 42 41 40 38 38 38 39 39 39 39 40 41 42 43 43
51 53 54 56 58 58 58 56 54 52 49 46 45 43 43 43 43 44 46 46 46 45 45 44 43 42 42 41 39 37 38 40 42 42 42 41 39 36 35 36 37 36 35 34 33 32 31 31 29 28 27 27 26 26 25 25 26 26 27 27 28 29 30 32 33 35 37 38 40 41 42 43 42 42 41 41 41 41 41 41 41 41 42 43 44 44
53 54 55 55 56 56 54 51 48 45 43 42 41 41 42 42 43 44 44 44 44 43 43 43 43 42 42 41 40 39 39 41 42 43 43 43 40 38 36 37 38 38 36 34 33 32 32 31 29 28 27 26 25 25 25 25 25 25 26 26 27 28 29 30 32 33 35 37 39 41 42 43 43 44 43 43 44 44 44 44 44 44 44 45 45 45
53 54 53 52 51 50 48 45 42 40 39 39 40 41 41 42 43 43 43 43 43 42 42 42 43 42 42 42 42 41 40 41 43 44 45 44 42 39 38 38 39 39 37 35 33 32 32 31 30 28 27 26 25 25 25 24 24 25 25 26 26 27 28 29 30 32 33 35 37 39 41 43 44 45 45 46 46 46 47 47 47 47 47 47 47 47
51 51 49 46 45 43 42 41 39 38 38 39 40 41 41 42 43 43 42 42 42 42 42 43 43 43 43 43 43 42 42 42 43 44 45 45 43 41 39 39 40 39 38 35 34 33 32 32 30 29 28 27 26 25 24 24 24 24 24 25 25 26 27 28 29 30 32 34 36 38 40 42 43 44 46 47 48 48 49 49 49 50 50 50 49 48
47 46 43 41 39 38 38 38 38 38 38 38 39 40 40 41 42 42 42 42 43 43 43 44 44 44 44 44 44 43 42 42 43 44 45 46 44 42 40 40 40 40 38 36 35 34 34 32 31 29 27 26 24 23 22 22 22 22 23 23 24 25 26 27 28 29 31 32 34 36 38 40 42 43 45 46 48 49 50 51 51 52 52 52 52 51
42 40 38 37 36 36 36 37 37 37 37 37 38 39 39 40 41 41 42 42 43 44 44 45 45 45 44 44 44 44 43 42 43 43 44 45 44 42 40 40 40 40 38 37 36 36 35 33 30 28 26 24 22 21 20 20 20 20 21 21 23 24 25 26 28 29 31 32 34 35 37 38 40 41 43 45 46 48 49 51 52 53 54 54 54 54
37 36 35 35 35 35 36 36 36 36 36 37 38 38 39 40 40 41 41 42 42 43 44 44 45 45 44 44 44 43 42 42 42 42 43 44 44 42 40 39 40 40 39 37 36 36 35 33 29 26 24 23 21 20 19 19 18 19 19 20 21 23 24 26 28 29 31 33 34 35 37 38 39 40 41 43 45 46 48 50 51 53 54 55 55 56
34 34 34 34 34 34 34 34 34 34 35 36 37 38 38 39 40 40 41 41 41 42 43 44 44 44 44 44 43 43 42 41 40 41 42 43 43 41 39 39 39 40 40 38 37 36 36 32 29 25 24 22 20 19 18 17 17 17 17 18 20 21 23 25 27 29 31 33 35 36 37 39 40 40 41 42 43 44 45 47 49 50 51 53 54 55
33 33 33 34 33 33 33 33 33 33 34 34 35 36 37 38 39 39 39 39 40 40 41 43 43 43 43 42 42 42 41 40 40 39 40 41 42 41 39 39 39 40 40 39 37 36 35 32 28 25 23 21 19 17 16 16 16 16 16 18 19 21 23 26 28 30 31 33 35 36 37 38 39 40 41 41 41 42 42 43 44 46 47 49 51 53
33 33 33 33 32 32 32 32 32 33 33 33 33 33 34 35 37 37 38 38 38 39 40 40 41 42 42 42 41 40 40 39 39 39 39 40 41 41 39 39 39 39 40 39 37 35 33 31 28 25 23 21 19 17 16 16 16 16 17 18 20 22 24 26 28 29 31 32 34 35 35 36 37 37 37 37 38 38 38 39 40 41 43 45 47 48
33 32 32 31 31 31 31 31 31 31 31 31 31 31 32 33 34 35 35 36 36 36 37 38 39 40 41 41 41 40 39 38 38 38 38 39 40 40 39 38 38 38 39 40 37 33 30 29 28 27 25 22 19 18 17 16 16 17 18 19 21 22 24 25 27 28 29 30 31 31 31 32 32 32 32 32 33 33 34 35 36 38 39 41 42 43
32 31 31 30 30 30 30 30 30 30 29 29 29 29 29 30 31 32 33 33 34 35 36 37 38 39 40 41 41 41 39 38 37 36 37 38 39 39 38 38 37 37 38 40 39 35 29 26 26 27 26 23 20 18 17 16 16 17 18 19 20 20 21 22 23 24 25 25 25 26 26 26 26 27 27 28 29 30 30 32 33 35 36 37 38 38
32 31 30 30 29 29 29 29 29 28 28 28 28 28 28 28 29 30 31 31 32 34 35 36 37 38 39 40 41 42 41 38 36 35 36 37 38 38 37 38 37 36 37 38 39 37 32 26 24 24 24 23 20 17 16 15 16 16 17 18 17 17 17 18 18 19 20 20 20 21 22 22 23 24 24 25 26 27 28 29 30 32 33 34 34 33
32 31 30 29 29 28 28 28 28 27 27 27 27 27 27 28 28 29 30 31 32 33 35 36 37 38 39 40 41 41 41 39 36 35 35 36 37 37 37 37 37 36 36 36 37 38 37 31 26 22 21 20 18 16 14 14 15 16 16 16 15 14 14 15 16 17 17 18 18 19 20 21 21 22 23 24 24 25 26 26 27 29 30 31 30 29
30 30 29 28 28 28 27 27 27 27 27 27 27 27 28 28 29 29 30 31 32 33 34 36 37 38 39 40 40 41 40 38 36 34 34 35 36 36 36 36 37 37 36 36 36 37 37 35 30 24 19 17 15 14 13 14 14 14 15 15 14 14 14 15 16 17 18 19 19 19 20 20 21 21 22 23 23 24 24 24 25 26 27 28 28 27
29 28 28 27 27 26 26 26 26 27 27 27 28 28 28 29 29 30 30 31 32 33 34 35 36 38 39 40 41 40 39 37 34 33 33 33 34 35 35 35 36 36 37 37 37 37 36 35 32 27 21 15 12 12 12 13 13 13 13 14 15 15 15 16 18 19 20 20 21 21 21 21 21 21 22 22 22 23 23 23 24 25 26 27 27 26
28 27 27 26 26 26 26 26 26 27 27 28 28 29 29 29 30 30 30 31 31 32 33 34 35 37 38 39 40 39 38 35 33 31 31 32 33 34 34 35 35 36 36 37 37 37 37 34 31 28 23 16 11 9 10 11 12 13 13 14 15 16 17 18 20 21 21 21 21 21 20 20 20 20 20 20 20 21 21 22 23 24 25 25 25 24
27 27 26 26 26 26 26 27 27 28 28 29 29 29 29 30 30 30 30 30 30 31 32 33 34 35 36 37 38 37 36 34 32 30 30 30 31 32 33 34 34 35 35 36 37 36 35 32 28 24 21 17 12 9 8 9 10 12 13 13 14 16 17 18 20 21 21 21 20 19 19 18 17 17 17 17 17 18 18 20 21 22 23 24 23 22
27 26 26 26 26 27 27 28 29 30 30 30 30 30 30 29 29 29 29 29 29 30 31 32 33 34 34 35 34 34 33 32 30 29 29 29 30 31 32 33 33 33 34 35 35 34 32 29 25 20 16 14 13 12 11 10 10 11 12 12 13 14 16 17 18 19 20 20 20 20 20 20 19 19 19 19 18 18 18 18 18 19 20 21 21 20
26 26 26 26 27 28 29 29 30 31 31 31 30 30 29 29 28 28 28 28 28 29 31 32 32 33 32 32 31 30 30 29 28 28 28 28 28 29 31 32 32 32 32 32 32 30 28 25 22 18 14 12 12 13 13 13 12 12 12 13 13 14 16 17 19 20 21 22 23 23 24 24 24 24 24 24 23 23 22 20 19 18 18 18 18 17
26 26 26 27 28 29 30 31 31 31 31 31 30 30 29 28 27 27 27 27 28 29 31 32 32 32 30 29 28 27 26 26 26 26 26 27 27 28 29 30 31 31 30 29 27 25 23 21 18 16 14 13 13 13 13 14 14 15 15 15 15 16 17 19 21 22 23 24 25 26 26 27 27 27 27 27 27 27 26 25 22 19 17 16 15 14
26 26 27 28 29 30 31 31 31 31 31 30 29 28 28 27 26 25 25 26 28 29 30 31 31 30 28 27 25 25 24 24 25 25 25 26 27 27 28 30 30 29 27 24 21 19 18 16 15 14 14 14 14 14 14 14 16 17 18 18 19 19 20 22 24 25 26 26 27 27 27 28 28 28 28 28 28 28 28 27 25 22 19 16 13 11
26 27 28 29 30 31 31 31 30 30 29 29 28 27 26 26 25 25 25 26 27 29 30 30 29 28 26 25 24 23 23 24 24 25 25 26 27 27 28 28 28 26 23 20 17 15 14 14 13 12 13 14 14 14 15 16 17 19 20 21 22 22 23 24 26 27 28 28 28 28 28 28 28 28 28 28 28 29 29 28 27 25 21 18 14 11
27 28 30 31 32 32 31 30 29 28 27 27 26 25 25 25 24 24 25 26 28 29 30 30 29 27 25 23 23 22 23 24 24 25 26 26 27 27 27 26 25 22 20 17 15 13 12 12 12 12 13 14 14 15 16 17 18 20 22 23 24 23 24 26 28 29 30 30 29 28 28 28 28 28 28 28 28 28 28 27 26 25 22 19 16 12
28 30 31 32 32 32 30 29 27 26 25 24 23 23 23 23 23 24 25 26 28 29 30 29 28 27 26 24 23 23 23 23 24 25 25 26 26 26 25 24 22 20 18 15 13 11 10 10 10 11 13 14 15 16 17 19 20 22 23 25 25 26 27 28 30 31 32 32 31 30 29 28 28 28 28 28 28 28 27 25 24 22 20 18 15 12
30 31 32 33 32 31 29 27 26 24 23 23 22 22 22 22 22 23 24 25 27 29 29 29 28 28 27 25 24 24 23 23 24 24 25 25 25 24 23 22 19 17 15 13 12 10 9 9 10 11 13 14 15 17 19 21 22 24 24 25 26 28 30 31 32 33 34 34 33 32 30 30 29 29 28 28 28 27 26 23 20 18 15 13 12 10
32 32 33 33 32 30 28 26 24 23 22 22 22 22 22 22 22 22 23 25 26 28 29 29 29 28 27 26 25 25 24 24 24 24 24 23 23 22 21 19 17 15 13 11 10 9 9 9 10 11 13 14 15 18 20 22 23 24 24 25 26 28 29 31 33 34 36 35 34 33 32 30 29 29 28 28 27 26 24 21 17 14 11 9 8 7
32 32 32 32 30 28 26 24 23 22 22 22 22 22 22 22 22 22 22 23 25 27 28 28 29 29 28 27 26 26 25 25 24 24 23 22 21 20 19 17 15 13 11 9 9 9 9 10 11 11 12 13 15 18 20 22 23 24 24 25 26 28 30 32 33 35 36 36 35 34 33 31 30 29 27 26 25 23 21 18 15 12 9 7 6 5
31 31 31 30 28 26 24 22 22 22 23 23 23 23 23 23 22 22 22 22 24 25 26 27 28 28 27 27 27 26 26 26 26 25 23 21 19 18 16 15 13 11 10 9 8 9 9 10 10 11 12 14 16 19 20 21 23 24 25 26 27 29 32 33 34 34 35 36 35 34 33 32 30 29 27 25 22 19 16 14 13 11 9 7 4 4
31 30 29 28 25 23 22 22 22 23 24 24 23 23 23 24 24 23 23 22 22 24 25 26 27 27 27 26 26 26 26 26 26 25 23 21 19 17 15 13 12 10 9 9 9 9 9 9 10 10 11 13 16 19 20 21 22 24 26 27 28 30 33 33 34 34 35 36 35 34 33 32 31 29 27 25 21 17 13 10 10 10 10 9 6 4
30 28 27 25 23 22 22 22 23 24 24 24 24 24 24 25 25 25 24 22 22 22 24 26 27 27 26 26 25 25 25 25 25 25 23 21 18 16 14 12 11 10 9 9 9 9 9 9 9 10 11 12 14 17 19 21 22 24 25 27 28 31 32 33 34 34 35 36 36 35 34 33 31 29 27 25 22 17 12 8 7 7 9 10 10 9
27 26 23 22 21 21 22 23 24 25 25 25 25 25 26 26 26 26 24 23 21 21 22 24 26 27 27 26 25 25 24 24 24 23 22 20 17 15 13 11 10 9 9 8 8 8 8 9 9 10 10 11 13 14 17 19 21 23 25 26 28 29 31 33 33 34 35 36 36 36 35 34 32 30 28 26 22 17 12 7 5 5 7 9 10 10
25 22 20 19 20 21 22 23 24 25 25 26 26 26 27 28 28 27 26 24 21 20 20 22 24 26 27 26 25 24 23 23 23 22 21 19 17 15 13 11 10 9 8 8 7 7 8 8 9 10 11 12 13 15 16 18 20 22 25 26 27 28 30 32 33 34 35 36 36 36 36 35 34 32 30 28 24 19 13 8 5 4 5 7 9 9
Wind_Direction
303 303 302 302 301 301 300 300 300 300 299 299 299 299 299 299 299 299 300 301 301 301 301 301 301 301 301 301 301 302 303 304 304 304 303 303 302 302 301 301 300 299 297 295 293 291 289 287 285 283 281 279 278 276 275 274 273 271 269 267 264 261 259 258 257 258 261 263 265 265 264 263 261 259 258 257 258 259 259 260 261 262 263 263 262 259
303 303 302 301 301 300 300 300 300 300 300 299 299 299 299 299 299 300 300 301 301 301 302 302 302 302 302 302 303 304 304 304 304 304 303 303 303 303 303 302 301 300 298 295 294 292 290 289 287 285 283 281 279 277 276 274 273 271 270 268 266 265 264 264 263 263 264 264 264 264 264 263 261 258 256 255 254 255 256 257 259 261 262 263 263 260
303 302 302 301 301 301 300 300 300 300 300 299 299 299 299 299 300 300 301 301 302 302 303 303 303 303 303 303 304 304 305 305 305 304 304 304 304 304 304 304 302 300 298 296 295 293 292 290 289 287 285 283 280 278 276 274 272 271 269 268 268 270 271 271 271 270 268 265 264 262 260 258 257 255 254 253 252 253 254 256 258 261 263 264 263 261
303 303 302 302 302 301 301 301 300 300 300 299 299 299 300 300 301 301 302 303 304 304 304 304 304 304 304 304 305 305 306 306 306 306 306 306 306 306 305 304 302 300 299 297 295 294 293 292 291 289 287 285 282 280 278 275 273 272 270 269 269 271 272 271 270 269 267 265 262 260 259 258 257 256 254 254 254 254 256 258 260 263 265 266 265 262
304 303 303 303 303 302 302 301 301 300 300 299 300 300 301 302 303 304 305 305 306 306 305 305 305 305 305 305 306 306 307 307 307 307 307 307 306 306 305 303 301 300 298 296 295 294 293 293 292 290 288 286 284 282 280 278 276 274 272 269 267 266 265 264 262 261 260 260 260 259 260 260 259 258 257 257 257 258 259 261 263 265 266 266 265 263
305 304 304 304 303 302 302 301 301 301 301 302 302 304 305 306 306 307 307 307 307 306 306 305 305 305 306 306 307 307 307 307 307 307 306 306 305 304 303 301 300 298 296 295 294 293 292 291 290 288 287 285 283 281 280 278 276 274 272 268 264 261 259 258 257 257 257 258 259 259 260 261 262 262 261 260 260 261 262 264 265 266 266 266 265 263
306 305 305 305 304 303 302 302 302 303 305 306 307 308 308 308 308 307 307 306 306 306 306 306 306 306 307 308 308 308 307 307 306 305 305 304 303 302 301 299 298 296 295 294 292 291 289 287 286 284 283 282 280 279 277 276 275 273 270 267 264 261 259 258 258 258 258 259 260 261 262 263 264 264 264 264 264 264 265 265 266 266 266 265 264 263
307 307 307 306 306 305 304 304 306 308 310 310 310 310 309 307 306 306 305 305 305 306 307 307 308 308 308 308 308 307 307 306 305 304 304 303 302 301 300 298 297 296 295 294 292 290 287 284 282 281 280 280 279 277 275 274 272 271 269 267 266 264 263 262 261 261 262 262 263 263 264 264 265 265 265 265 266 266 266 266 267 266 266 265 264 263
308 308 309 308 308 308 308 309 310 311 311 310 308 307 306 305 305 305 306 306 307 308 309 310 310 309 309 308 307 306 306 305 305 304 304 304 303 302 300 299 298 297 296 294 292 290 287 285 283 280 279 278 277 276 275 273 272 270 269 268 267 266 265 265 264 264 264 264 264 264 265 265 265 265 265 266 266 266 267 267 267 267 266 265 264 263
310 310 310 310 310 310 311 311 310 309 308 306 305 304 304 305 306 308 308 308 309 310 310 311 310 309 308 307 307 306 306 305 305 305 305 304 304 303 302 301 300 299 297 296 294 292 290 289 286 283 281 279 278 277 276 274 273 272 270 269 269 268 267 266 266 265 265 265 265 264 264 264 264 264 265 265 266 266 267 267 268 267 267 266 265 263
312 311 311 311 311 311 310 308 307 306 305 305 304 305 306 308 309 310 311 311 311 311 311 310 309 309 308 308 307 307 307 307 307 306 306 305 305 304 303 302 301 300 299 298 297 296 294 293 291 288 286 283 282 280 278 277 275 273 272 271 270 269 268 267 267 266 265 265 265 264 264 264 264 264 264 265 265 266 266 267 267 267 267 266 265 264
312 312 312 311 310 309 307 306 305 305 306 307 307 308 310 311 312 312 311 311 311 311 310 309 309 309 309 310 310 310 310 310 309 309 308 307 307 306 305 305 304 303 303 301 300 299 297 296 293 291 288 286 284 282 280 278 277 275 274 272 271 270 269 268 267 266 266 265 265 264 264 264 264 264 264 264 264 264 264 264 264 265 265 265 265 264
313 312 311 309 307 305 305 305 306 307 308 309 309 309 310 312 312 311 310 309 309 309 310 310 310 310 311 311 312 312 312 312 311 311 310 309 309 309 308 308 307 306 305 304 302 300 298 296 294 291 289 287 285 283 281 280 278 277 275 274 272 271 270 268 267 266 265 265 264 264 264 264 263 263 263 262 262 262 262 261 261 261 261 262 262 261
312 310 307 305 305 305 306 306 307 308 308 309 310 310 310 311 311 310 309 308 309 310 311 312 312 312 312 313 314 314 314 313 313 312 311 310 310 310 310 309 308 307 306 304 302 300 298 297 294 292 290 288 286 285 283 281 280 278 276 275 273 271 270 268 267 266 265 264 263 263 263 263 262 262 261 260 259 259 259 259 259 259 258 258 258 257
308 306 304 304 304 305 306 307 307 307 309 310 310 310 310 310 309 309 309 310 311 313 314 313 313 312 312 314 315 316 316 316 315 314 312 311 311 312 312 311 309 308 307 305 303 302 301 299 298 295 293 291 289 287 286 284 282 281 279 277 274 272 270 268 266 265 263 262 262 261 261 261 260 259 258 255 253 252 253 253 253 254 254 254 254 253
304 303 303 304 304 305 306 307 307 308 309 310 311 310 310 310 310 312 313 314 315 316 316 315 314 313 313 315 318 319 319 319 317 316 314 313 313 314 314 313 312 310 309 308 307 306 305 304 301 299 297 295 293 291 290 288 286 284 282 279 276 273 270 268 266 264 261 260 260 259 259 259 259 257 253 248 245 244 245 245 246 247 248 248 249 249
303 303 303 303 304 305 307 308 309 309 310 311 311 311 311 312 313 315 316 316 316 316 316 315 314 315 316 318 321 323 323 321 319 317 316 315 316 317 318 317 316 314 312 311 311 311 309 307 304 302 300 298 296 295 293 292 290 287 284 280 276 272 268 266 263 261 259 258 258 258 259 259 258 256 252 248 244 243 243 243 244 244 245 245 245 246
303 303 303 303 304 306 308 309 310 311 312 312 312 312 313 315 316 317 316 316 316 316 315 315 315 316 319 321 324 326 325 322 320 318 317 317 318 320 321 320 318 316 314 313 313 312 311 308 306 304 302 301 299 297 295 293 290 288 284 280 276 272 267 263 260 258 257 257 257 258 258 258 258 256 254 250 248 246 246 246 246 246 246 246 246 246
302 303 303 304 305 307 309 310 311 313 313 314 314 315 316 317 317 315 313 314 314 315 315 316 317 319 320 322 324 327 326 322 320 318 318 318 320 322 322 321 318 316 314 313 313 312 311 308 306 305 304 302 301 298 296 293 290 287 284 280 276 273 268 264 261 259 257 257 257 257 258 258 258 257 255 253 251 250 249 249 249 249 249 249 249 248
303 304 305 307 308 309 310 312 314 315 316 317 317 318 318 317 315 313 312 313 314 315 316 317 318 319 321 321 323 325 325 322 319 317 317 318 320 322 323 321 317 315 313 314 314 313 311 309 308 307 305 304 303 301 298 295 292 288 284 281 278 274 270 267 263 260 258 257 257 257 257 258 258 258 257 256 254 253 252 251 251 251 251 251 251 250
304 306 309 310 310 311 312 315 317 319 320 320 320 319 317 316 314 313 314 314 315 316 317 317 318 319 319 320 321 323 323 320 318 317 317 317 319 321 322 320 317 314 314 315 315 315 313 312 311 310 309 308 307 305 302 299 295 291 287 283 280 277 273 270 266 263 260 258 257 256 256 257 257 257 257 257 256 255 254 253 252 252 252 252 252 252
307 309 312 313 314 314 316 318 320 321 321 321 320 318 316 316 315 315 315 316 316 316 317 317 317 317 318 318 320 321 321 319 317 316 316 316 318 320 321 319 316 315 315 316 317 316 315 314 314 314 314 313 312 310 307 302 298 294 290 286 283 280 277 274 270 266 263 260 258 257 256 256 256 257 257 257 257 256 256 255 254 253 253 252 252 252
310 313 315 317 318 319 320 321 322 322 321 321 319 318 317 316 316 315 315 315 315 315 316 316 317 317 318 318 319 319 319 318 317 317 316 316 317 319 320 319 317 316 316 318 318 318 317 317 317 318 318 317 316 313 309 305 300 296 292 289 286 283 280 277 273 270 266 262 260 258 257 256 256 256 256 256 256 256 256 255 255 254 253 252 252 251
315 317 319 321 322 322 322 322 322 322 321 320 319 318 318 316 315 314 314 314 314 314 315 315 316 317 317 318 318 318 319 319 318 317 317 316 317 318 320 319 318 317 318 319 320 319 319 319 320 321 321 321 320 317 313 309 304 299 295 290 286 283 280 277 274 271 268 265 263 260 258 257 257 256 256 256 256 256 256 255 255 254 253 253 251 250
319 321 322 323 323 323 323 322 322 322 322 321 320 318 317 315 314 313 313 313 313 313 313 314 314 315 317 318 318 319 320 320 319 318 318 317 317 318 319 319 318 318 319 321 322 321 321 322 324 326 326 327 325 323 319 314 308 302 296 290 285 280 277 274 272 270 268 267 265 264 262 261 260 259 258 258 258 257 257 256 256 255 255 254 253 251
323 324 324 324 324 324 323 323 323 322 322 320 318 316 315 313 312 312 312 312 312 312 312 312 313 315 317 318 319 320 322 322 321 321 319 318 317 318 320 320 319 319 320 322 324 323 323 324 327 330 331 331 330 327 323 318 311 304 296 289 283 278 275 272 271 269 268 268 267 267 266 266 265 265 264 264 263 261 260 259 259 258 257 256 255 254
326 326 325 325 325 325 325 324 324 323 321 319 316 314 312 311 310 310 311 312 312 312 312 313 314 317 320 321 322 323 324 324 324 324 322 319 318 318 320 321 321 321 321 323 325 325 325 326 330 334 336 336 335 332 328 323 315 306 297 289 283 278 275 273 272 271 270 270 270 270 271 271 271 271 271 270 269 268 267 265 263 261 260 259 258 257
327 327 327 327 327 327 326 325 323 321 319 317 314 312 310 309 309 309 311 312 313 313 313 314 316 319 321 323 325 326 326 327 327 326 323 320 318 319 321 322 322 322 323 324 325 326 326 328 332 337 340 341 339 336 332 325 316 306 296 287 282 278 276 275 275 275 275 275 275 276 276 276 276 276 276 276 275 274 272 270 268 265 263 261 260 259
329 329 329 329 329 327 326 324 322 320 318 316 314 312 311 310 310 311 312 314 314 315 316 318 320 322 324 326 327 328 329 330 330 328 324 320 319 319 321 322 323 324 325 325 326 327 328 332 336 340 342 344 343 339 333 323 310 299 290 284 281 279 279 279 280 280 281 281 282 282 282 282 282 281 281 280 279 277 276 274 271 269 266 264 263 262
331 331 331 331 329 328 325 323 321 320 318 317 316 315 314 313 313 314 315 317 318 319 321 323 324 325 326 327 328 329 331 332 332 328 324 320 319 320 322 322 324 325 326 327 327 328 331 336 341 342 343 344 343 340 331 319 306 295 289 286 285 285 285 285 286 286 286 287 287 287 287 287 287 286 285 283 282 280 278 277 274 272 270 268 266 265
333 333 333 332 331 328 326 324 323 321 320 320 320 319 319 319 319 319 321 322 323 324 325 326 327 328 328 327 327 328 331 333 333 329 324 320 319 321 322 323 325 327 328 328 327 328 331 338 345 348 346 344 343 339 330 317 306 299 296 295 295 295 295 294 293 293 293 293 293 292 292 291 290 289 287 285 284 282 280 278 276 274 272 271 270 269
334 334 334 333 331 329 327 325 325 324 324 325 325 325 325 324 324 325 326 327 327 327 327 327 328 328 328 328 327 327 330 332 332 329 325 321 320 322 323 324 325 327 329 328 328 328 329 335 344 351 351 348 344 338 327 316 308 304 304 305 307 309 308 306 304 303 302 301 300 299 297 295 293 291 289 287 285 284 283 281 279 276 275 274 273 272
334 334 334 332 331 329 328 328 328 328 329 329 329 329 328 328 328 328 329 329 329 329 329 328 328 328 328 328 328 328 330 331 331 329 325 322 321 322 324 325 326 327 328 328 328 329 329 333 340 347 350 350 345 336 324 314 310 311 313 317 321 323 322 318 314 312 311 310 309 307 305 302 299 297 294 292 290 289 287 285 282 280 278 277 276 275
335 335 334 332 331 330 330 331 332 332 332 332 332 331 330 329 329 329 330 330 330 330 330 329 328 328 328 328 328 329 330 331 330 328 325 323 322 323 325 326 327 327 327 328 329 330 330 333 337 340 344 348 347 337 324 316 317 322 326 328 329 329 328 324 321 319 319 319 318 316 314 311 307 304 301 298 296 294 291 289 286 284 282 280 279 278
335 335 334 333 332 332 333 334 334 334 334 333 332 332 331 330 330 330 330 330 330 330 330 329 328 327 327 327 327 328 329 330 330 328 326 325 324 324 325 326 327 327 327 328 329 329 329 332 335 337 337 342 348 347 336 328 330 335 337 334 331 330 329 327 326 325 325 325 324 323 321 318 314 311 308 304 301 297 294 290 288 286 284 283 282 280
335 335 335 334 334 335 335 336 336 335 334 334 333 332 332 331 331 331 331 331 331 330 330 329 328 328 327 327 327 327 328 329 330 329 328 327 326 325 325 326 327 326 326 327 328 328 328 330 333 336 337 340 349 2 3 354 348 345 342 337 334 333 332 331 330 330 331 332 332 332 331 330 328 325 322 317 311 305 300 295 291 288 286 285 283 282
335 336 336 336 336 336 337 337 336 336 335 335 334 334 333 333 332 332 332 332 332 331 330 329 329 329 329 329 328 328 329 329 330 330 330 329 327 326 325 325 326 325 325 325 326 327 328 330 333 339 344 349 358 8 16 15 7 357 350 345 343 341 339 338 337 338 340 342 344 345 345 344 343 342 339 335 330 324 318 310 302 295 290 287 285 283
336 337 338 337 337 337 337 337 337 337 337 336 336 336 335 334 333 333 334 334 334 333 332 331 331 331 332 332 331 330 330 330 331 331 331 330 329 327 325 324 324 325 325 325 325 326 327 330 335 344 357 9 15 15 14 13 9 5 3 2 359 355 351 350 350 350 352 352 353 353 352 350 347 345 342 340 337 335 331 327 319 309 299 292 287 285
338 338 339 338 338 338 338 338 338 338 338 338 338 337 336 335 335 336 337 338 338 337 335 334 334 335 335 336 335 334 333 332 332 332 332 331 329 327 324 323 323 324 325 326 326 327 329 332 338 348 1 16 25 24 16 9 5 6 9 13 14 10 4 1 359 359 359 358 356 355 353 351 348 344 340 337 335 333 332 331 328 322 313 304 296 291
338 339 339 338 338 338 339 339 340 340 340 340 339 338 336 336 336 338 340 341 341 340 339 338 338 338 339 339 338 337 335 335 334 334 333 332 329 327 324 324 324 326 328 329 330 331 334 337 345 355 6 16 22 23 17 10 7 8 12 17 20 18 13 9 5 3 2 359 356 353 351 350 347 344 340 336 333 331 330 330 330 328 326 321 313 304
339 338 338 338 338 338 339 340 341 342 341 341 339 338 337 337 338 341 343 345 345 343 342 341 341 341 342 342 342 340 339 337 337 336 334 332 330 328 327 327 328 330 333 335 337 340 341 344 351 5 17 23 25 23 18 15 13 12 13 16 18 19 16 13 9 6 3 360 356 352 349 347 345 342 339 336 333 331 330 329 329 329 330 331 329 323
338 338 337 337 338 339 340 342 343 343 343 341 340 339 339 339 341 343 346 347 348 347 346 345 344 344 344 345 344 343 342 341 339 338 336 334 332 331 331 332 334 336 338 341 345 348 350 351 358 11 24 28 28 26 24 23 20 18 16 15 14 14 14 13 11 8 4 360 355 351 347 345 343 340 337 335 333 332 331 330 329 330 331 334 336 335
337 337 337 337 338 340 341 343 344 344 344 343 342 341 341 341 341 343 345 347 349 349 349 347 346 345 345 345 346 346 345 344 343 341 339 337 336 336 337 338 340 341 343 346 351 356 1 3 8 18 27 29 27 26 26 27 26 24 21 17 15 14 13 12 10 8 4 0 356 353 349 346 343 340 337 335 333 333 333 332 332 332 333 335 337 337
336 336 337 338 339 340 342 344 345 346 346 346 345 344 343 342 342 342 344 346 349 350 350 349 347 346 346 346 347 348 349 348 346 344 343 342 341 341 342 343 344 346 348 353 359 7 16 20 24 28 30 28 25 24 25 27 28 27 24 20 18 16 13 11 8 6 4 1 358 354 351 348 345 342 339 337 335 334 334 334 335 335 335 335 333 330
336 336 337 338 340 342 344 346 347 348 349 349 348 346 345 343 341 341 342 344 348 350 351 350 349 348 347 347 348 349 351 351 350 349 348 347 346 346 346 347 349 353 358 4 12 21 29 34 36 35 32 27 23 22 24 26 27 27 24 22 19 18 15 12 9 5 2 360 357 354 351 348 346 344 342 340 338 337 336 337 337 337 336 331 322 312
336 337 338 339 341 343 346 348 349 351 352 352 351 350 347 344 342 340 340 342 345 349 351 351 350 349 348 348 349 350 352 353 353 353 353 353 352 352 351 352 356 1 9 18 28 35 39 40 40 38 34 30 27 26 25 25 25 25 24 21 20 19 17 14 10 6 2 359 357 354 352 349 348 347 346 345 343 342 341 341 341 340 338 327 306 289
336 337 338 340 343 346 349 351 353 354 355 355 355 353 350 347 344 341 340 341 344 347 349 351 351 351 350 349 350 351 353 355 356 356 357 358 359 359 359 360 4 11 21 31 39 45 46 46 43 39 36 35 36 34 30 26 25 24 23 21 21 20 19 16 12 8 5 1 357 354 352 351 350 349 350 350 350 348 346 345 345 345 345 338 314 284
337 338 339 341 345 349 352 355 357 358 358 358 358 357 355 352 348 344 342 341 342 345 348 350 352 352 352 352 352 353 355 356 357 358 359 2 5 7 7 9 13 20 30 39 46 49 48 46 42 36 33 33 36 37 35 30 27 25 23 22 21 20 19 16 14 10 6 2 359 356 354 353 352 352 353 354 354 353 351 349 347 348 350 353 353 347
337 338 340 343 348 353 357 359 1 1 1 1 1 1 360 358 354 350 345 342 341 344 347 350 352 353 353 354 354 355 357 358 358 359 1 5 9 13 16 18 22 28 35 42 46 47 46 42 37 31 26 24 28 33 35 32 28 26 23 21 20 19 18 16 14 11 8 3 360 357 355 355 355 356 357 356 356 356 356 353 347 345 348 352 356 359
338 339 342 347 352 357 1 3 4 3 3 3 4 4 4 3 0 356 351 346 343 343 346 350 352 354 355 356 356 357 358 359 360 1 3 7 13 18 22 25 30 35 40 45 47 45 42 37 32 27 21 17 19 23 27 29 28 26 24 21 19 18 16 15 14 12 8 3 360 357 356 356 358 360 0 360 359 359 2 5 357 342 341 344 347 350
339 342 346 352 358 2 4 6 6 5 4 5 5 6 6 5 4 2 358 353 347 344 345 349 353 356 357 357 358 358 359 360 1 2 5 9 15 21 26 30 35 39 44 48 50 48 44 38 32 27 23 20 17 17 21 23 24 25 23 21 19 17 15 14 13 11 8 3 359 357 356 357 358 1 3 3 3 5 12 25 28 360 342 345 349 354
Height
2885 2883 2881 2879 2877 2876 2872 2869 2867 2866 2864 2860 2857 2856 2854 2852 2850 2848 2846 2845 2843 2841 2839 2837 2835 2834 2832 2831 2829 2828 2826 2825 2823 2822 2820 2818 2817 2815 2814 2812 2811 2809 2808 2807 2806 2804 2803 2803 2802 2801 2800 2799 2798 2797 2796 2796 2796 2795 2795 2795 2795 2794 2794 2794 2794 2794 2796 2797 2796 2796 2795 2796 2797 2798 2799 2798 2798 2797 2796 2795 2794 2794 2794 2795 2797 2799
2881 2878 2876 2873 2872 2871 2868 2865 2862 2860 2858 2855 2853 2851 2849 2847 2846 2844 2842 2841 2839 2837 2835 2833 2831 2829 2827 2826 2824 2823 2822 2821 2819 2817 2815 2814 2812 2811 2809 2807 2806 2805 2804 2802 2801 2800 2799 2798 2797 2796 2796 2795 2794 2793 2792 2791 2791 2791 2791 2791 2791 2791 2791 2791 2791 2791 2793 2793 2792 2792 2791 2791 2792 2792 2791 2791 2791 2790 2789 2789 2788 2789 2789 2791 2793 2795
2876 2874 2871 2868 2866 2865 2863 2860 2858 2856 2853 2851 2848 2846 2845 2843 2841 2840 2838 2836 2835 2833 2831 2829 2827 2825 2822 2821 2820 2819 2817 2816 2814 2812 2811 2809 2807 2806 2805 2803 2802 2801 2799 2798 2797 2796 2795 2794 2793 2792 2792 2791 2790 2789 2788 2788 2788 2787 2787 2787 2787 2787 2788 2789 2788 2787 2787 2787 2788 2787 2786 2785 2785 2784 2784 2784 2784 2784 2784 2784 2784 2784 2785 2787 2788 2790
2871 2869 2866 2863 2861 2859 2857 2856 2854 2851 2849 2846 2845 2843 2841 2839 2837 2835 2834 2832 2830 2828 2826 2825 2823 2821 2818 2816 2815 2814 2812 2811 2809 2807 2806 2805 2803 2802 2801 2799 2798 2796 2795 2794 2793 2792 2791 2791 2790 2789 2788 2787 2786 2786 2785 2785 2784 2784 2784 2783 2783 2784 2786 2785 2784 2783 2783 2782 2781 2780 2780 2779 2779 2779 2779 2779 2779 2779 2779 2780 2780 2781 2781 2782 2784 2785
2865 2864 2861 2859 2857 2854 2852 2851 2849 2847 2845 2843 2841 2839 2837 2835 2833 2831 2829 2827 2826 2824 2822 2820 2818 2816 2814 2812 2811 2809 2808 2806 2805 2803 2802 2801 2800 2798 2797 2796 2794 2793 2791 2791 2790 2789 2788 2787 2786 2785 2784 2784 2783 2782 2781 2781 2780 2780 2780 2779 2780 2780 2780 2780 2779 2779 2777 2776 2775 2774 2774 2773 2774 2774 2774 2775 2775 2775 2776 2776 2776 2777 2777 2778 2779 2780
2861 2859 2857 2856 2853 2851 2848 2847 2845 2843 2841 2838 2836 2835 2833 2831 2829 2827 2825 2823 2821 2820 2818 2816 2814 2812 2811 2808 2807 2805 2804 2802 2801 2800 2798 2797 2796 2795 2794 2792 2791 2790 2789 2787 2787 2786 2785 2784 2783 2782 2781 2781 2780 2779 2778 2777 2777 2776 2776 2775 2775 2775 2774 2773 2773 2772 2771 2770 2769 2769 2769 2769 2769 2770 2770 2770 2771 2771 2771 2772 2772 2773 2773 2773 2774 2775
2856 2855 2854 2852 2850 2847 2845 2844 2842 2840 2837 2835 2832 2831 2829 2827 2826 2824 2822 2820 2818 2816 2814 2812 2810 2808 2807 2805 2803 2801 2800 2798 2797 2796 2795 2794 2793 2792 2791 2789 2788 2787 2786 2785 2784 2783 2782 2781 2780 2779 2778 2777 2776 2776 2775 2774 2773 2772 2771 2770 2770 2769 2768 2768 2767 2766 2766 2765 2765 2765 2765 2765 2765 2765 2766 2766 2766 2766 2767 2767 2768 2768 2768 2769 2769 2770
2853 2851 2850 2849 2846 2844 2841 2840 2838 2837 2835 2832 2830 2827 2825 2823 2822 2821 2819 2817 2815 2812 2810 2807 2806 2804 2803 2801 2800 2798 2796 2795 2793 2792 2791 2790 2789 2788 2787 2786 2785 2784 2783 2781 2781 2780 2779 2778 2777 2776 2775 2776 2776 2774 2771 2770 2769 2768 2767 2766 2765 2765 2764 2764 2763 2763 2762 2762 2761 2761 2761 2761 2761 2761 2761 2761 2762 2762 2762 2763 2763 2764 2764 2764 2765 2765
2851 2848 2846 2845 2843 2841 2837 2835 2834 2834 2833 2831 2828 2825 2822 2819 2817 2816 2814 2813 2811 2809 2807 2804 2801 2799 2799 2798 2796 2794 2792 2791 2790 2788 2787 2786 2785 2784 2783 2782 2781 2780 2779 2778 2777 2776 2775 2774 2773 2772 2772 2772 2771 2769 2767 2765 2764 2763 2762 2762 2761 2761 2760 2760 2759 2759 2758 2758 2757 2757 2757 2757 2757 2757 2757 2757 2758 2758 2759 2759 2760 2760 2760 2760 2761 2761
2848 2846 2844 2841 2840 2838 2836 2834 2831 2831 2831 2829 2826 2824 2821 2817 2814 2811 2809 2807 2806 2805 2803 2801 2798 2795 2794 2793 2792 2791 2789 2787 2786 2786 2784 2783 2781 2780 2779 2778 2777 2776 2775 2774 2773 2772 2771 2770 2769 2768 2767 2766 2765 2763 2762 2761 2760 2759 2758 2758 2757 2757 2756 2756 2755 2755 2754 2754 2753 2753 2753 2753 2753 2753 2754 2754 2754 2755 2756 2756 2756 2756 2757 2757 2757 2757
2846 2844 2841 2839 2836 2836 2835 2833 2830 2828 2827 2825 2823 2820 2818 2816 2812 2808 2804 2801 2800 2800 2799 2797 2795 2792 2790 2788 2787 2786 2785 2783 2782 2781 2781 2779 2778 2776 2775 2774 2773 2772 2771 2770 2769 2768 2767 2766 2765 2763 2762 2761 2760 2759 2758 2757 2756 2755 2755 2754 2754 2753 2752 2752 2751 2751 2751 2750 2750 2749 2749 2749 2749 2750 2750 2751 2751 2752 2753 2754 2754 2753 2754 2753 2753 2754
2844 2841 2839 2837 2836 2834 2832 2830 2827 2826 2824 2822 2818 2815 2813 2812 2810 2807 2802 2798 2796 2795 2794 2792 2791 2790 2787 2785 2783 2782 2781 2780 2778 2777 2776 2774 2773 2771 2770 2769 2768 2767 2766 2765 2764 2763 2763 2761 2761 2759 2758 2757 2756 2755 2754 2753 2752 2751 2751 2750 2750 2749 2749 2748 2747 2747 2747 2746 2746 2746 2746 2746 2746 2746 2747 2748 2749 2749 2750 2751 2751 2751 2751 2750 2750 2751
2842 2840 2838 2836 2834 2831 2829 2827 2824 2822 2820 2818 2816 2812 2809 2808 2806 2804 2801 2797 2794 2792 2790 2788 2786 2786 2785 2783 2781 2779 2778 2776 2774 2773 2771 2770 2768 2767 2765 2764 2763 2762 2761 2761 2760 2759 2759 2758 2756 2755 2754 2753 2752 2751 2750 2749 2748 2747 2747 2746 2746 2745 2745 2744 2744 2743 2743 2742 2742 2742 2742 2742 2742 2743 2744 2744 2746 2747 2747 2747 2747 2747 2747 2747 2747 2748
2840 2838 2836 2833 2831 2829 2827 2824 2821 2819 2817 2815 2813 2810 2807 2805 2803 2801 2797 2794 2791 2790 2788 2785 2783 2782 2781 2781 2780 2777 2775 2773 2771 2769 2768 2766 2765 2763 2762 2760 2759 2759 2758 2757 2756 2756 2755 2754 2752 2751 2751 2749 2748 2747 2746 2745 2744 2744 2743 2742 2742 2741 2741 2740 2740 2739 2739 2739 2738 2738 2738 2738 2739 2740 2741 2742 2744 2744 2744 2744 2743 2743 2743 2743 2743 2744
2839 2836 2833 2830 2828 2826 2824 2822 2819 2816 2814 2812 2810 2808 2805 2802 2800 2797 2794 2791 2788 2786 2785 2783 2780 2779 2779 2778 2777 2775 2773 2770 2768 2766 2764 2763 2762 2761 2759 2757 2756 2756 2755 2754 2752 2752 2751 2750 2749 2747 2746 2746 2744 2743 2742 2741 2741 2740 2739 2738 2738 2737 2736 2736 2736 2735 2735 2735 2735 2735 2734 2735 2735 2736 2738 2739 2739 2739 2739 2738 2738 2738 2738 2739 2739 2740
2836 2834 2831 2828 2825 2823 2821 2820 2817 2814 2811 2809 2807 2805 2802 2799 2796 2794 2791 2788 2786 2784 2782 2780 2777 2775 2775 2776 2776 2774 2770 2767 2765 2763 2761 2760 2759 2759 2757 2755 2753 2752 2751 2750 2749 2748 2748 2747 2746 2744 2743 2742 2741 2740 2739 2738 2737 2736 2735 2734 2734 2733 2732 2732 2732 2732 2732 2731 2731 2730 2730 2731 2731 2732 2733 2733 2733 2732 2732 2732 2732 2732 2733 2733 2734 2735
2834 2831 2829 2826 2822 2820 2818 2817 2815 2812 2809 2806 2804 2802 2799 2796 2793 2791 2789 2786 2785 2782 2780 2778 2775 2772 2770 2771 2772 2771 2769 2765 2762 2760 2758 2756 2756 2756 2755 2753 2750 2748 2747 2747 2746 2745 2744 2743 2742 2741 2740 2739 2738 2736 2736 2734 2733 2732 2731 2730 2730 2729 2729 2730 2729 2728 2727 2726 2726 2726 2726 2726 2727 2727 2728 2728 2728 2728 2727 2727 2727 2728 2728 2728 2729 2730
2831 2829 2826 2823 2820 2817 2815 2814 2811 2809 2807 2804 2801 2798 2796 2794 2791 2790 2788 2786 2783 2781 2778 2776 2774 2771 2769 2767 2767 2768 2767 2763 2760 2757 2755 2754 2753 2753 2753 2750 2747 2746 2744 2744 2743 2742 2741 2740 2739 2738 2736 2736 2735 2734 2732 2731 2730 2729 2728 2727 2726 2725 2725 2724 2723 2723 2723 2722 2722 2722 2722 2722 2723 2724 2724 2724 2724 2724 2724 2724 2724 2725 2725 2725 2726 2726
2828 2826 2824 2821 2818 2815 2813 2811 2809 2807 2804 2801 2798 2795 2792 2791 2790 2789 2786 2784 2782 2779 2777 2774 2772 2770 2768 2766 2765 2765 2764 2761 2758 2755 2752 2751 2750 2751 2750 2748 2745 2743 2741 2741 2741 2740 2738 2737 2736 2735 2734 2733 2732 2731 2730 2728 2727 2726 2725 2724 2723 2722 2721 2721 2720 2720 2720 2719 2719 2719 2719 2719 2719 2720 2720 2721 2721 2721 2721 2721 2721 2721 2721 2722 2722 2723
2825 2823 2821 2819 2816 2812 2810 2809 2807 2805 2802 2799 2796 2793 2791 2790 2788 2786 2784 2782 2780 2778 2776 2773 2771 2768 2766 2764 2763 2762 2762 2760 2756 2753 2750 2748 2747 2747 2747 2745 2742 2740 2739 2738 2738 2736 2735 2734 2733 2732 2731 2730 2729 2728 2726 2725 2724 2723 2721 2721 2719 2718 2718 2717 2717 2716 2716 2716 2716 2716 2715 2715 2715 2716 2716 2716 2716 2717 2717 2717 2717 2718 2718 2718 2719 2719
2822 2820 2819 2817 2814 2811 2807 2806 2804 2802 2800 2797 2795 2793 2791 2788 2786 2784 2782 2780 2777 2775 2773 2771 2769 2767 2765 2763 2761 2760 2760 2757 2754 2751 2747 2745 2744 2744 2744 2742 2740 2737 2736 2735 2735 2734 2732 2730 2729 2728 2728 2727 2726 2725 2723 2722 2721 2720 2718 2717 2716 2716 2715 2714 2714 2713 2713 2712 2712 2712 2712 2711 2711 2711 2711 2711 2712 2712 2712 2713 2713 2714 2714 2714 2715 2715
2820 2817 2816 2815 2812 2809 2806 2803 2801 2800 2799 2797 2795 2792 2789 2786 2783 2781 2779 2777 2775 2773 2771 2769 2767 2765 2763 2761 2759 2758 2758 2756 2753 2750 2746 2743 2741 2741 2742 2740 2737 2734 2733 2732 2731 2730 2729 2727 2726 2725 2724 2724 2722 2721 2720 2719 2718 2716 2716 2715 2714 2713 2712 2711 2711 2710 2710 2709 2709 2708 2708 2708 2708 2707 2707 2707 2707 2707 2708 2708 2708 2709 2709 2709 2710 2711
2818 2816 2813 2812 2810 2807 2805 2802 2800 2799 2797 2796 2793 2790 2787 2785 2782 2780 2777 2775 2773 2771 2769 2766 2765 2763 2761 2759 2758 2756 2756 2754 2751 2749 2746 2741 2738 2738 2738 2737 2734 2731 2730 2729 2728 2727 2725 2724 2723 2722 2721 2721 2720 2719 2718 2716 2715 2714 2713 2712 2711 2710 2709 2708 2707 2707 2706 2706 2705 2705 2705 2704 2704 2704 2704 2703 2703 2703 2703 2703 2703 2704 2704 2704 2705 2706
2816 2814 2811 2810 2808 2806 2804 2801 2800 2797 2795 2793 2791 2788 2786 2784 2781 2779 2776 2774 2772 2769 2767 2764 2762 2760 2759 2758 2756 2755 2754 2752 2750 2747 2743 2740 2736 2735 2735 2734 2731 2729 2727 2726 2725 2724 2722 2721 2720 2720 2719 2718 2717 2716 2715 2714 2713 2712 2711 2710 2708 2707 2706 2705 2704 2703 2703 2702 2702 2701 2701 2701 2700 2700 2700 2699 2699 2699 2698 2698 2698 2698 2698 2698 2699 2700
2815 2812 2811 2808 2806 2805 2802 2800 2798 2796 2794 2791 2789 2786 2784 2782 2780 2777 2775 2773 2771 2768 2766 2763 2761 2759 2757 2756 2754 2753 2752 2751 2748 2746 2742 2738 2735 2733 2733 2731 2729 2726 2724 2723 2722 2721 2719 2718 2717 2716 2716 2715 2714 2713 2712 2711 2710 2709 2708 2706 2705 2704 2703 2702 2701 2700 2699 2699 2698 2697 2697 2697 2696 2696 2696 2696 2695 2695 2694 2694 2693 2693 2693 2693 2693 2694
2813 2811 2809 2807 2805 2803 2801 2799 2797 2795 2793 2791 2788 2786 2783 2781 2778 2776 2774 2772 2770 2768 2765 2762 2760 2757 2756 2754 2752 2751 2750 2748 2746 2744 2741 2737 2733 2731 2730 2730 2727 2724 2721 2720 2720 2718 2716 2715 2714 2714 2713 2712 2711 2711 2710 2708 2707 2706 2705 2703 2702 2701 2700 2699 2698 2697 2696 2696 2695 2694 2694 2693 2693 2693 2693 2692 2692 2691 2691 2690 2690 2689 2689 2689 2689 2689
2811 2810 2808 2806 2804 2801 2799 2797 2795 2793 2792 2790 2788 2786 2783 2780 2777 2775 2773 2771 2769 2767 2764 2761 2758 2756 2754 2752 2751 2749 2747 2746 2744 2742 2739 2736 2732 2729 2728 2727 2725 2722 2719 2718 2716 2716 2714 2712 2711 2711 2710 2709 2708 2708 2706 2705 2704 2703 2702 2701 2700 2698 2697 2696 2695 2695 2694 2693 2692 2691 2691 2691 2690 2689 2689 2688 2688 2687 2687 2686 2686 2686 2685 2685 2685 2684
2809 2808 2806 2804 2802 2800 2798 2796 2794 2792 2791 2789 2787 2785 2783 2780 2777 2774 2772 2770 2768 2766 2763 2760 2757 2754 2752 2750 2748 2747 2745 2744 2742 2740 2737 2734 2730 2727 2726 2725 2723 2721 2718 2715 2714 2713 2712 2710 2709 2708 2707 2706 2706 2705 2704 2703 2701 2701 2700 2698 2697 2696 2695 2694 2693 2692 2691 2690 2689 2689 2688 2687 2686 2686 2685 2684 2684 2683 2682 2682 2682 2681 2681 2681 2680 2680
2807 2806 2804 2802 2800 2798 2796 2795 2793 2791 2790 2788 2786 2784 2782 2780 2777 2774 2771 2769 2767 2765 2762 2760 2757 2754 2751 2748 2746 2745 2744 2742 2741 2738 2735 2732 2729 2726 2725 2723 2721 2720 2717 2713 2711 2709 2709 2709 2707 2706 2705 2704 2703 2702 2701 2701 2699 2698 2697 2696 2695 2694 2693 2692 2691 2690 2689 2688 2687 2686 2685 2684 2683 2682 2682 2681 2680 2680 2679 2678 2678 2677 2677 2676 2676 2675
2805 2804 2802 2801 2799 2797 2795 2793 2792 2790 2789 2787 2785 2783 2781 2779 2776 2774 2771 2769 2766 2764 2761 2758 2756 2753 2750 2747 2744 2742 2741 2741 2740 2737 2734 2731 2727 2725 2723 2721 2720 2719 2716 2713 2709 2706 2705 2706 2706 2705 2703 2702 2701 2701 2700 2698 2697 2696 2694 2693 2693 2692 2691 2690 2689 2688 2687 2686 2685 2684 2683 2682 2681 2680 2679 2678 2677 2677 2676 2675 2675 2674 2673 2672 2671 2671
2803 2801 2800 2798 2797 2795 2794 2792 2790 2789 2787 2786 2784 2781 2780 2777 2775 2772 2770 2768 2765 2762 2760 2757 2754 2752 2750 2746 2743 2741 2739 2739 2738 2736 2733 2729 2726 2723 2722 2720 2718 2717 2716 2714 2710 2705 2702 2702 2703 2704 2702 2701 2700 2699 2698 2696 2695 2693 2692 2691 2691 2690 2689 2688 2687 2686 2685 2684 2683 2682 2681 2680 2679 2678 2677 2676 2675 2674 2673 2672 2671 2671 2669 2668 2668 2667
2801 2800 2798 2796 2795 2794 2792 2791 2789 2787 2785 2784 2782 2780 2778 2776 2773 2771 2769 2766 2764 2761 2759 2756 2753 2751 2749 2746 2744 2741 2738 2737 2736 2734 2731 2728 2725 2722 2721 2719 2717 2716 2715 2714 2711 2708 2704 2700 2700 2701 2701 2700 2698 2697 2696 2695 2693 2692 2691 2690 2689 2689 2688 2687 2686 2685 2684 2683 2681 2681 2679 2678 2677 2676 2675 2674 2672 2671 2670 2670 2669 2668 2666 2665 2664 2664
2800 2798 2797 2796 2794 2792 2791 2789 2787 2786 2784 2782 2780 2778 2776 2774 2772 2770 2767 2765 2763 2761 2758 2755 2752 2750 2747 2745 2742 2740 2737 2736 2734 2732 2730 2727 2724 2721 2720 2718 2716 2714 2713 2712 2711 2709 2706 2702 2699 2698 2698 2698 2697 2696 2694 2693 2692 2691 2690 2689 2688 2687 2687 2686 2684 2683 2682 2681 2680 2678 2677 2676 2675 2674 2672 2671 2670 2669 2668 2667 2666 2665 2664 2662 2661 2661
2799 2797 2796 2794 2793 2791 2790 2788 2786 2784 2782 2780 2778 2776 2775 2772 2771 2768 2766 2764 2762 2760 2757 2755 2752 2749 2746 2743 2741 2738 2736 2735 2733 2731 2729 2727 2724 2721 2719 2717 2715 2713 2711 2710 2708 2707 2705 2702 2700 2698 2696 2696 2696 2695 2693 2692 2691 2690 2689 2688 2687 2686 2685 2684 2683 2681 2680 2679 2677 2676 2675 2674 2673 2671 2670 2669 2667 2666 2665 2664 2663 2662 2661 2659 2658 2657
2797 2796 2795 2793 2791 2790 2788 2786 2785 2783 2781 2779 2777 2775 2773 2771 2769 2767 2765 2763 2761 2759 2757 2755 2752 2749 2746 2743 2739 2737 2735 2734 2732 2731 2728 2726 2723 2720 2718 2716 2714 2713 2710 2708 2707 2705 2703 2701 2700 2698 2696 2695 2694 2694 2693 2692 2691 2690 2689 2688 2687 2686 2684 2683 2682 2680 2679 2678 2676 2675 2674 2672 2671 2669 2668 2667 2665 2664 2663 2661 2660 2659 2658 2657 2656 2655
2796 2795 2794 2792 2790 2788 2786 2785 2783 2781 2780 2778 2776 2774 2772 2770 2768 2766 2764 2762 2761 2759 2756 2754 2752 2750 2747 2743 2740 2736 2734 2732 2731 2729 2727 2725 2723 2720 2717 2715 2714 2712 2710 2708 2706 2705 2702 2701 2699 2698 2696 2695 2694 2693 2693 2692 2691 2690 2689 2688 2687 2686 2684 2683 2681 2680 2678 2677 2675 2674 2672 2671 2669 2668 2666 2665 2664 2662 2661 2659 2658 2657 2656 2655 2653 2652
2796 2794 2793 2791 2789 2787 2785 2784 2782 2780 2778 2776 2774 2772 2770 2768 2766 2765 2763 2761 2760 2758 2756 2753 2751 2749 2746 2743 2740 2737 2734 2731 2730 2728 2726 2724 2722 2720 2717 2715 2713 2712 2711 2708 2706 2704 2702 2700 2698 2697 2696 2695 2694 2693 2692 2691 2691 2690 2689 2688 2686 2686 2684 2683 2681 2680 2678 2676 2674 2673 2671 2669 2667 2666 2664 2663 2661 2660 2659 2657 2656 2655 2654 2652 2651 2650
2795 2793 2791 2790 2788 2786 2784 2782 2780 2778 2776 2774 2772 2771 2769 2767 2765 2764 2762 2760 2759 2756 2754 2752 2750 2747 2745 2743 2740 2737 2734 2731 2729 2727 2726 2724 2722 2720 2717 2714 2713 2712 2711 2709 2706 2704 2702 2700 2698 2696 2696 2695 2694 2693 2692 2691 2691 2690 2689 2688 2686 2685 2684 2682 2681 2679 2677 2675 2673 2671 2669 2667 2666 2664 2662 2661 2659 2658 2656 2655 2654 2653 2652 2651 2649 2648
2794 2792 2791 2789 2787 2785 2783 2781 2779 2777 2775 2773 2771 2769 2767 2766 2764 2763 2761 2759 2757 2756 2753 2751 2748 2746 2744 2741 2739 2736 2734 2731 2729 2727 2725 2723 2721 2719 2717 2714 2712 2711 2710 2709 2707 2705 2702 2701 2699 2697 2696 2695 2694 2694 2693 2692 2691 2690 2689 2688 2686 2685 2684 2682 2680 2678 2676 2674 2672 2670 2668 2666 2664 2662 2660 2659 2657 2656 2654 2653 2652 2651 2650 2649 2648 2647
2793 2791 2790 2788 2786 2784 2782 2780 2778 2776 2774 2772 2770 2768 2766 2765 2763 2762 2760 2759 2757 2755 2752 2750 2747 2745 2743 2741 2739 2736 2734 2731 2729 2727 2725 2723 2721 2719 2717 2715 2712 2711 2709 2708 2706 2704 2702 2701 2699 2698 2697 2696 2695 2694 2694 2693 2691 2690 2689 2687 2686 2685 2683 2681 2680 2677 2675 2673 2671 2669 2666 2665 2663 2661 2660 2658 2656 2655 2653 2651 2650 2649 2648 2647 2646 2646
2792 2790 2789 2787 2785 2783 2781 2779 2777 2775 2773 2771 2769 2767 2765 2763 2762 2760 2759 2757 2756 2754 2751 2749 2747 2745 2743 2741 2738 2736 2734 2731 2729 2726 2724 2722 2720 2718 2716 2714 2712 2710 2708 2706 2705 2704 2702 2701 2699 2698 2698 2697 2696 2695 2694 2693 2692 2690 2689 2687 2686 2684 2683 2681 2679 2676 2674 2672 2671 2669 2666 2664 2662 2661 2660 2658 2656 2655 2653 2651 2649 2648 2647 2646 2646 2645
2791 2789 2787 2786 2784 2782 2780 2778 2776 2774 2772 2771 2769 2767 2765 2763 2761 2759 2758 2756 2754 2752 2750 2748 2746 2744 2742 2740 2738 2736 2733 2731 2728 2726 2724 2722 2720 2717 2715 2713 2711 2710 2708 2706 2705 2703 2702 2701 2700 2699 2698 2698 2697 2696 2695 2694 2692 2691 2689 2687 2685 2683 2682 2680 2678 2676 2674 2672 2670 2668 2666 2664 2662 2661 2659 2658 2656 2655 2653 2651 2649 2648 2646 2645 2645 2644
2790 2788 2786 2785 2783 2781 2779 2777 2775 2774 2772 2770 2768 2766 2765 2762 2761 2759 2757 2755 2754 2751 2749 2747 2745 2743 2741 2739 2737 2735 2733 2731 2728 2726 2723 2721 2719 2716 2715 2713 2711 2710 2708 2706 2705 2704 2703 2702 2701 2700 2699 2699 2698 2697 2696 2694 2693 2691 2689 2687 2685 2682 2680 2678 2677 2675 2674 2671 2670 2668 2666 2664 2663 2661 2659 2657 2656 2654 2653 2651 2650 2648 2647 2645 2644 2644
2789 2787 2786 2783 2781 2780 2778 2776 2775 2773 2771 2770 2768 2766 2764 2762 2760 2758 2756 2755 2753 2751 2749 2747 2744 2742 2740 2738 2736 2735 2732 2731 2728 2726 2723 2721 2719 2716 2714 2713 2711 2709 2708 2707 2706 2704 2704 2703 2702 2701 2701 2700 2699 2698 2696 2694 2693 2691 2689 2687 2686 2683 2681 2678 2676 2675 2673 2671 2669 2668 2666 2664 2662 2661 2659 2657 2655 2653 2652 2651 2650 2648 2647 2646 2645 2644
2788 2786 2785 2783 2781 2779 2777 2776 2774 2772 2771 2769 2767 2766 2764 2762 2760 2758 2756 2754 2753 2751 2749 2746 2744 2741 2739 2737 2736 2734 2732 2730 2728 2726 2723 2721 2719 2717 2715 2713 2711 2710 2709 2708 2706 2706 2705 2704 2703 2702 2701 2701 2700 2698 2697 2695 2693 2691 2690 2688 2686 2684 2682 2680 2677 2675 2673 2671 2669 2667 2666 2664 2662 2661 2659 2657 2655 2653 2651 2651 2649 2648 2647 2646 2645 2644
2787 2786 2783 2782 2780 2778 2776 2775 2773 2772 2770 2769 2767 2765 2763 2761 2760 2758 2756 2754 2752 2750 2748 2746 2744 2741 2739 2736 2735 2733 2731 2729 2727 2725 2723 2721 2719 2717 2715 2713 2712 2711 2709 2708 2707 2707 2706 2705 2704 2703 2703 2702 2701 2699 2697 2696 2694 2692 2690 2688 2686 2685 2682 2681 2679 2676 2674 2671 2670 2668 2666 2664 2662 2660 2658 2656 2655 2653 2651 2650 2649 2648 2647 2646 2645 2644
2786 2784 2782 2781 2779 2777 2776 2774 2773 2771 2770 2768 2766 2765 2763 2761 2759 2757 2756 2754 2752 2750 2748 2746 2744 2742 2739 2736 2734 2732 2730 2728 2726 2724 2722 2721 2719 2717 2716 2714 2713 2711 2710 2709 2709 2708 2707 2706 2705 2704 2704 2703 2701 2700 2698 2696 2695 2693 2691 2689 2687 2685 2683 2681 2679 2677 2675 2673 2671 2668 2666 2664 2662 2660 2658 2656 2655 2653 2652 2651 2650 2649 2648 2647 2646 2645
2785 2783 2782 2780 2778 2777 2776 2774 2772 2771 2769 2768 2766 2765 2763 2761 2759 2757 2755 2753 2752 2750 2748 2746 2744 2741 2739 2737 2735 2732 2730 2728 2726 2724 2722 2721 2719 2717 2716 2715 2714 2712 2711 2711 2710 2709 2708 2707 2706 2705 2704 2703 2702 2700 2699 2697 2696 2693 2691 2690 2688 2686 2683 2681 2680 2678 2676 2674 2672 2669 2667 2664 2662 2660 2658 2656 2655 2654 2652 2651 2650 2649 2649 2648 2647 2647
2785 2783 2781 2779 2778 2776 2775 2774 2772 2771 2769 2767 2766 2764 2763 2761 2759 2757 2755 2753 2751 2750 2748 2746 2743 2741 2739 2737 2735 2733 2731 2729 2727 2725 2723 2721 2719 2718 2717 2716 2715 2714 2713 2712 2711 2710 2709 2708 2707 2706 2705 2704 2703 2701 2699 2698 2696 2694 2693 2691 2689 2686 2685 2682 2681 2678 2676 2674 2672 2670 2668 2666 2663 2661 2659 2657 2655 2654 2653 2652 2651 2650 2650 2649 2649 2648
2784 2782 2781 2779 2778 2776 2775 2773 2772 2770 2769 2767 2766 2764 2762 2761 2759 2757 2755 2753 2751 2750 2748 2746 2744 2741 2739 2737 2735 2733 2731 2729 2727 2726 2724 2722 2720 2719 2717 2717 2716 2715 2714 2713 2712 2711 2710 2709 2708 2707 2706 2705 2703 2702 2700 2698 2697 2695 2694 2692 2690 2688 2686 2684 2681 2679 2677 2675 2673 2671 2668 2666 2664 2661 2660 2658 2656 2655 2654 2653 2652 2651 2650 2650 2650 2650
2783 2782 2780 2779 2777 2776 2775 2773 2772 2770 2769 2767 2766 2764 2762 2760 2759 2757 2755 2753 2751 2750 2748 2746 2744 2742 2739 2737 2735 2733 2731 2730 2728 2726 2724 2722 2721 2720 2719 2718 2717 2716 2715 2714 2713 2712 2711 2710 2709 2708 2707 2706 2704 2702 2701 2699 2697 2696 2694 2693 2691 2689 2687 2685 2682 2680 2678 2676 2673 2671 2669 2666 2664 2662 2660 2658 2657 2656 2655 2654 2653 2652 2651 2650 2650 2650